G4YTK Weather Reports


time (UTC)temp
C
wind
direction
speed
KPH
gust
KPH
rain 1hr
cm
rain 24hr
cm
rain mn
cm
humidity
%
barometer
mb
20260508064503 10 360 3.2 8.0 0.00 0.00 0.00 100 1017.1
20260508063005 10 360 1.6 4.8 0.00 0.00 0.00 100 1017.0
20260508061504 10 360 1.6 8.0 0.00 0.00 0.00 100 1016.8
20260508054503 9 360 1.6 3.2 0.00 0.00 0.00 100 1016.8
20260508053004 9 360 1.6 4.8 0.00 0.00 0.00 100 1016.6
20260508051503 9 360 1.6 4.8 0.00 0.00 0.00 100 1016.6
20260508050006 9 360 0.0 0.0 0.00 0.00 0.00 100 1016.4
20260508044503 9 360 0.0 3.2 0.00 0.00 0.00 100 1016.4
20260508043004 10 360 1.6 3.2 0.00 0.00 0.00 100 1016.4
20260508041505 10 360 1.6 4.8 0.00 0.00 0.00 100 1016.4
20260508040006 10 360 0.0 4.8 0.00 0.00 0.00 100 1016.3
20260508034503 10 360 1.6 4.8 0.00 0.00 0.00 100 1016.1
20260508033003 10 360 0.0 1.6 0.00 0.00 0.00 100 1016.3
20260508031503 10 360 1.6 4.8 0.00 0.00 0.00 100 1016.3
20260508030006 10 360 1.6 8.0 0.00 0.00 0.00 100 1016.3
20260508024503 10 360 0.0 0.0 0.00 0.00 0.00 100 1016.3
20260508023004 10 360 0.0 0.0 0.00 0.00 0.00 100 1016.2
20260508021503 10 360 0.0 0.0 0.00 0.00 0.00 100 1016.2
20260508020006 10 360 0.0 0.0 0.00 0.00 0.00 100 1016.2
20260508014503 10 360 0.0 0.0 0.00 0.00 0.00 100 1016.1
20260508013005 10 360 0.0 3.2 0.00 0.00 0.00 100 1016.2
20260508011503 10 360 0.0 4.8 0.00 0.00 0.00 100 1016.3
20260508010006 10 360 1.6 4.8 0.00 0.00 0.00 100 1016.3
20260508004503 10 360 0.0 4.8 0.00 0.00 0.00 100 1016.3
20260508003005 10 360 0.0 4.8 0.00 0.00 0.00 100 1016.3
20260508000008 11 360 0.0 3.2 0.00 0.00 0.00 100 1016.3
20260507234505 11 360 1.6 6.4 0.00 0.00 0.00 100 1016.2
20260507233006 11 360 0.0 0.0 0.00 0.00 0.00 100 1016.4
20260507231505 11 360 0.0 0.0 0.00 0.00 0.00 100 1016.4
20260507230009 11 360 0.0 0.0 0.00 0.00 0.00 100 1016.3
20260507224505 11 360 0.0 0.0 0.00 0.00 0.00 100 1016.4
20260507223005 11 360 0.0 0.0 0.00 0.00 0.00 100 1016.3
20260507220011 11 197 0.0 0.0 0.00 0.00 0.00 100 1016.2
20260507214504 11 200 0.0 0.0 0.00 0.00 0.00 100 1016.3
20260507211505 11 243 0.0 0.0 0.00 0.00 0.00 100 1016.0
20260507210010 11 360 0.0 1.6 0.00 0.00 0.00 100 1016.0
20260507204505 11 244 0.0 0.0 0.00 0.00 0.00 100 1015.9
20260507203005 11 360 0.0 3.2 0.00 0.00 0.00 100 1015.9
20260507201504 12 360 1.6 4.8 0.00 0.00 0.00 100 1015.8
20260507194505 12 243 1.6 6.4 0.00 0.00 0.00 100 1015.5
20260507193005 12 360 1.6 4.8 0.00 0.00 0.00 100 1015.4
20260507191504 12 360 3.2 8.0 0.00 0.00 0.00 100 1015.4
20260507190010 12 360 4.8 9.7 0.00 0.00 0.00 100 1015.4
20260507184504 13 360 3.2 12.9 0.00 0.00 0.00 100 1015.4
20260507183006 13 360 4.8 12.9 0.00 0.00 0.00 88 1015.2
20260507181504 13 360 4.8 9.7 0.00 0.00 0.00 84 1015.1
20260507174504 13 219 3.2 9.7 0.00 0.00 0.00 86 1014.9
20260507173005 13 208 4.8 9.7 0.00 0.00 0.00 64 1014.9
20260507171504 14 360 4.8 12.9 0.00 0.00 0.00 52 1014.8
20260507170007 14 173 4.8 12.9 0.00 0.00 0.00 22 1014.8
20260507164504 15 212 6.4 14.5 0.00 0.00 0.00 14 1014.8
20260507163005 15 135 4.8 14.5 0.00 0.00 0.00 14 1014.7
20260507161505 15 155 6.4 14.5 0.00 0.00 0.00 14 1014.7
20260507160007 15 150 4.8 11.3 0.00 0.00 0.00 14 1014.8
20260507153004 15 140 4.8 14.5 0.00 0.00 0.00 19 1015.0
20260507151504 15 123 6.4 11.3 0.00 0.00 0.00 45 1015.0
20260507150018 15 128 9.7 22.5 0.00 0.00 0.00 49 1015.2
20260507144504 16 176 6.4 24.1 0.00 0.00 0.00 48 1015.2
20260507143004 15 198 3.2 6.4 0.00 0.00 0.00 55 1015.5
20260507141504 15 132 4.8 17.7 0.00 0.00 0.00 43 1015.6
20260507140008 15 169 3.2 9.7 0.00 0.00 0.00 70 1015.7
20260507134504 15 146 6.4 12.9 0.00 0.00 0.00 49 1015.8
20260507133004 15 205 6.4 17.7 0.00 0.00 0.00 100 1015.7
20260507130007 15 206 4.8 12.9 0.00 0.00 0.00 100 1015.9
20260507124504 15 209 6.4 17.7 0.00 0.00 0.00 100 1016.0
20260507123005 14 150 4.8 12.9 0.00 0.00 0.00 100 1016.2
20260507121504 14 150 6.4 16.1 0.00 0.00 0.00 100 1016.2
20260507113007 13 159 8.0 19.3 0.00 0.00 0.00 100 1016.5
20260507111506 13 211 8.0 14.5 0.00 0.00 0.00 100 1016.5
20260507104504 12 360 4.8 14.5 0.00 0.00 0.00 100 1016.6
20260507103005 12 360 4.8 12.9 0.00 0.00 0.00 100 1016.7
20260507101504 11 360 6.4 16.1 0.00 0.00 0.00 100 1016.8
20260507100006 11 360 6.4 12.9 0.00 0.00 0.00 100 1016.8
20260507094503 10 360 4.8 9.7 0.00 0.00 0.00 100 1016.7
20260507093004 10 360 4.8 9.7 0.00 0.00 0.00 100 1016.8
20260507091503 9 360 6.4 9.7 0.00 0.00 0.00 100 1016.8
20260507090006 9 360 4.8 12.9 0.00 0.00 0.00 100 1016.7
20260507074503 8 360 4.8 12.9 0.00 0.00 0.00 100 1016.8
20260507073004 7 360 6.4 14.5 0.00 0.00 0.00 100 1016.7
20260507071503 7 360 6.4 12.9 0.00 0.00 0.00 100 1016.6
20260507070010 6 360 8.0 16.1 0.00 0.00 0.00 100 1016.6